• In Belgium
  • List of Countries
  • For 7 days
  • Water Temperature
  • Satellite Maps
  • Weather Map
  • Weather Widgets
  • user-avatar
    Login

    Hourly Weather Kalgoorlie

    Today, 23 January, Tuesday

    Time Temperature Precipitation Wind Pressure Humidity
    00:00 +32°C° 0.1 mm 8 mps 725 mmHg 52%
    01:00 +29°C° 0.1 mm 9 mps 725 mmHg 57%
    02:00 +29°C° 0 mm 8 mps 725 mmHg 57%
    03:00 +28°C° 0 mm 8 mps 725 mmHg 58%
    04:00 +28°C° 0 mm 7 mps 725 mmHg 59%
    05:00 +27°C° 0 mm 7 mps 725 mmHg 61%
    06:00 +29°C° 0 mm 7 mps 725 mmHg 56%
    07:00 +30°C° 0 mm 7 mps 725 mmHg 51%
    08:00 +32°C° 0 mm 7 mps 725 mmHg 47%
    09:00 +34°C° 0 mm 6 mps 725 mmHg 41%
    10:00 +36°C° 0 mm 5 mps 725 mmHg 36%
    11:00 +39°C° 0 mm 5 mps 725 mmHg 30%
    12:00 +40°C° 0 mm 4 mps 724 mmHg 27%
    13:00 +40°C° 0 mm 3 mps 724 mmHg 25%
    14:00 +42°C° 0 mm 3 mps 723 mmHg 23%
    15:00 +41°C° 0.2 mm 4 mps 723 mmHg 25%
    16:00 +41°C° 0.2 mm 4 mps 723 mmHg 27%
    17:00 +40°C° 0.2 mm 5 mps 722 mmHg 28%
    18:00 +38°C° 1.1 mm 6 mps 722 mmHg 36%
    19:00 +35°C° 1.1 mm 6 mps 723 mmHg 44%
    20:00 +33°C° 1.1 mm 7 mps 723 mmHg 52%
    21:00 +31°C° 0.2 mm 8 mps 723 mmHg 57%
    22:00 +29°C° 0.2 mm 8 mps 723 mmHg 63%
    23:00 +28°C° 0.2 mm 9 mps 724 mmHg 68%

    Tomorrow, 24 January, Wednesday

    Time Temperature Precipitation Wind Pressure Humidity
    00:00 +27°C° 1 mm 8 mps 724 mmHg 71%
    01:00 +26°C° 1 mm 7 mps 723 mmHg 75%
    02:00 +24°C° 1 mm 6 mps 723 mmHg 78%
    03:00 +24°C° 0.2 mm 6 mps 723 mmHg 79%
    04:00 +25°C° 0.2 mm 5 mps 723 mmHg 79%
    05:00 +25°C° 0.2 mm 4 mps 723 mmHg 79%
    06:00 +26°C° 0 mm 5 mps 723 mmHg 75%
    07:00 +27°C° 0 mm 5 mps 724 mmHg 70%
    08:00 +28°C° 0 mm 5 mps 724 mmHg 66%
    09:00 +30°C° 0 mm 5 mps 724 mmHg 59%
    10:00 +33°C° 0 mm 5 mps 723 mmHg 51%
    11:00 +34°C° 0 mm 5 mps 723 mmHg 44%
    12:00 +36°C° 0 mm 5 mps 723 mmHg 40%
    13:00 +37°C° 0 mm 4 mps 722 mmHg 36%
    14:00 +38°C° 0 mm 4 mps 722 mmHg 32%
    15:00 +38°C° 0 mm 4 mps 721 mmHg 32%
    16:00 +39°C° 0 mm 5 mps 720 mmHg 32%
    17:00 +39°C° 0 mm 6 mps 720 mmHg 33%
    18:00 +37°C° 0 mm 8 mps 720 mmHg 40%
    19:00 +34°C° 0 mm 9 mps 721 mmHg 47%
    20:00 +32°C° 0 mm 11 mps 721 mmHg 54%
    21:00 +29°C° 0.6 mm 10 mps 721 mmHg 60%
    22:00 +28°C° 0.6 mm 9 mps 722 mmHg 66%
    23:00 +26°C° 0.6 mm 9 mps 722 mmHg 72%

    Day after tomorrow, 25 January, Thursday

    Time Temperature Precipitation Wind Pressure Humidity
    00:00 +26°C° 0.2 mm 8 mps 722 mmHg 74%
    01:00 +24°C° 0.2 mm 7 mps 722 mmHg 75%
    02:00 +24°C° 0.2 mm 7 mps 721 mmHg 77%
    03:00 +24°C° 0.4 mm 6 mps 721 mmHg 78%
    04:00 +23°C° 0.4 mm 6 mps 721 mmHg 80%
    05:00 +23°C° 0.4 mm 5 mps 721 mmHg 81%
    06:00 +23°C° 0.1 mm 5 mps 721 mmHg 78%
    07:00 +24°C° 0.1 mm 6 mps 722 mmHg 76%
    08:00 +24°C° 0.1 mm 6 mps 722 mmHg 73%
    09:00 +27°C° 0 mm 6 mps 722 mmHg 67%
    10:00 +28°C° 0 mm 5 mps 722 mmHg 61%
    11:00 +30°C° 0 mm 5 mps 722 mmHg 55%
    12:00 +32°C° 0 mm 5 mps 721 mmHg 51%
    13:00 +33°C° 0 mm 4 mps 721 mmHg 47%
    14:00 +34°C° 0 mm 4 mps 720 mmHg 43%
    15:00 +35°C° 0 mm 4 mps 720 mmHg 43%
    16:00 +35°C° 0 mm 4 mps 720 mmHg 42%
    17:00 +35°C° 0 mm 5 mps 720 mmHg 41%
    18:00 +34°C° 0 mm 5 mps 720 mmHg 43%
    19:00 +34°C° 0 mm 6 mps 721 mmHg 46%
    20:00 +33°C° 0 mm 7 mps 722 mmHg 48%
    21:00 +30°C° 0.3 mm 7 mps 722 mmHg 53%
    22:00 +29°C° 0.3 mm 8 mps 722 mmHg 58%
    23:00 +28°C° 0.3 mm 8 mps 722 mmHg 63%

    26 January, Friday

    Time Temperature Precipitation Wind Pressure Humidity
    00:00 +27°C° 0 mm 7 mps 722 mmHg 67%
    01:00 +26°C° 0 mm 7 mps 722 mmHg 70%
    02:00 +26°C° 0 mm 6 mps 722 mmHg 73%
    03:00 +24°C° 0 mm 6 mps 722 mmHg 74%
    04:00 +24°C° 0 mm 6 mps 722 mmHg 74%
    05:00 +23°C° 0 mm 5 mps 722 mmHg 75%
    06:00 +25°C° 0 mm 5 mps 722 mmHg 70%
    07:00 +26°C° 0 mm 5 mps 722 mmHg 65%
    08:00 +27°C° 0 mm 5 mps 722 mmHg 60%
    09:00 +29°C° 0 mm 4 mps 722 mmHg 53%
    10:00 +31°C° 0 mm 3 mps 722 mmHg 47%
    11:00 +34°C° 0 mm 2 mps 722 mmHg 40%
    12:00 +35°C° 0 mm 2 mps 721 mmHg 37%
    13:00 +36°C° 0 mm 1 mps 721 mmHg 33%
    14:00 +35°C° 0 mm 0 mps 720 mmHg 30%
    15:00 +37°C° 0 mm 1 mps 720 mmHg 29%
    16:00 +39°C° 0 mm 1 mps 720 mmHg 28%
    17:00 +39°C° 0 mm 1 mps 719 mmHg 27%
    18:00 +39°C° 0 mm 2 mps 720 mmHg 28%
    19:00 +38°C° 0 mm 3 mps 720 mmHg 29%
    20:00 +38°C° 0 mm 4 mps 720 mmHg 30%
    21:00 +37°C° 0.1 mm 4 mps 720 mmHg 33%
    22:00 +36°C° 0.1 mm 4 mps 720 mmHg 35%
    23:00 +35°C° 0.1 mm 4 mps 720 mmHg 38%

    27 January, Saturday

    Time Temperature Precipitation Wind Pressure Humidity
    00:00 +34°C° 0 mm 5 mps 720 mmHg 43%
    01:00 +32°C° 0 mm 6 mps 720 mmHg 49%
    02:00 +30°C° 0 mm 7 mps 720 mmHg 55%
    03:00 +30°C° 0.1 mm 7 mps 720 mmHg 56%
    04:00 +29°C° 0.1 mm 7 mps 720 mmHg 57%
    05:00 +29°C° 0.1 mm 7 mps 719 mmHg 59%
    06:00 +30°C° 0 mm 7 mps 720 mmHg 56%
    07:00 +32°C° 0 mm 7 mps 720 mmHg 52%
    08:00 +33°C° 0 mm 7 mps 720 mmHg 49%
    09:00 +35°C° 0 mm 6 mps 720 mmHg 42%
    10:00 +38°C° 0 mm 6 mps 720 mmHg 36%
    11:00 +41°C° 0 mm 5 mps 719 mmHg 30%
    12:00 +42°C° 0 mm 5 mps 719 mmHg 26%
    13:00 +43°C° 0 mm 5 mps 718 mmHg 23%
    14:00 +45°C° 0 mm 5 mps 717 mmHg 20%
    15:00 +44°C° 0 mm 6 mps 717 mmHg 24%
    16:00 +41°C° 0 mm 7 mps 717 mmHg 29%
    17:00 +39°C° 0 mm 8 mps 717 mmHg 34%
    18:00 +35°C° 0.6 mm 9 mps 718 mmHg 46%
    19:00 +31°C° 0.6 mm 10 mps 719 mmHg 58%
    20:00 +26°C° 0.6 mm 11 mps 720 mmHg 69%
    21:00 +26°C° 0.1 mm 11 mps 721 mmHg 70%
    22:00 +24°C° 0.1 mm 11 mps 722 mmHg 70%
    23:00 +23°C° 0.1 mm 11 mps 723 mmHg 71%

    28 January, Sunday

    Time Temperature Precipitation Wind Pressure Humidity
    00:00 +22°C° 0 mm 10 mps 723 mmHg 72%
    01:00 +22°C° 0 mm 10 mps 722 mmHg 72%
    02:00 +21°C° 0 mm 10 mps 722 mmHg 73%
    03:00 +21°C° 0 mm 9 mps 723 mmHg 74%
    04:00 +21°C° 0 mm 9 mps 723 mmHg 74%
    05:00 +19°C° 0 mm 9 mps 724 mmHg 75%
    06:00 +20°C° 0 mm 8 mps 725 mmHg 74%
    07:00 +20°C° 0 mm 8 mps 725 mmHg 74%
    08:00 +20°C° 0 mm 8 mps 726 mmHg 73%
    09:00 +22°C° 0 mm 8 mps 726 mmHg 68%
    10:00 +23°C° 0 mm 8 mps 726 mmHg 63%
    11:00 +24°C° 0 mm 8 mps 726 mmHg 59%
    12:00 +26°C° 0 mm 9 mps 725 mmHg 57%
    13:00 +26°C° 0 mm 9 mps 725 mmHg 55%
    14:00 +27°C° 0 mm 9 mps 725 mmHg 53%
    15:00 +26°C° 0 mm 9 mps 725 mmHg 54%
    16:00 +26°C° 0 mm 9 mps 725 mmHg 55%
    17:00 +24°C° 0 mm 9 mps 726 mmHg 56%
    18:00 +23°C° 0 mm 10 mps 726 mmHg 58%
    19:00 +22°C° 0 mm 10 mps 727 mmHg 59%
    20:00 +21°C° 0 mm 10 mps 727 mmHg 60%
    21:00 +19°C° 0 mm 10 mps 728 mmHg 62%
    22:00 +18°C° 0 mm 10 mps 728 mmHg 63%
    23:00 +17°C° 0 mm 10 mps 728 mmHg 64%
    Show more